Location: �clusier
(49.9361°N, 2.7869°E)
Time: 00:36:50
(UTC+00:00)

Cosmos 1331 Rocket - Pass Details

Date: 29 October 2021
Orbit: 749 x 778 km, 74.0° (Epoch: 28 November)

Event Time Altitude Azimuth Distance (km) Brightness Sun altitude
Rises 04:48:32 0° 340° (NNW) 3,237 7.0 -17.4°
Reaches altitude 10° 04:51:09 10° 350° (N) 2,312 6.4 -16.9°
Maximum altitude 04:55:52 33° 54° (NE) 1,287 5.7 -16.2°
Drops below altitude 10° 05:00:35 10° 118° (ESE) 2,316 7.5 -15.4°
Sets 05:03:12 0° 128° (SE) 3,243 8.2 -15.0°
